This demonstration page uses our WeatherBlox Daily Observations layout. Learn more.

Left ArrowRight Arrow

39.01783, -85.05884

Hourly Observations for August 31, 2022

Temp ( °F °C ) Dew Point ( °F °C ) Humidity (%) Winds ( mph kmh ) Pressure ( in mb ) Visibility ( mi km ) Precip ( " mm )
12:52 am 00:52 Clear 66 18.9 59 15 78 78 W 8 13 30.00 1016 10 16 0.00 0.00
1:52 am 01:52 Clear 67 19.4 59 15 76 76 WNW 6 9 30.00 1016 10 16 0.00 0.00
2:52 am 02:52 Clear 64 17.8 58 14.4 80 80 NW 5 7 29.99 1016 10 16 0.00 0.00
3:52 am 03:52 Clear 62 16.7 58 14.4 86 86 W 3 6 30.00 1016 10 16 0.00 0.00
4:52 am 04:52 Clear 62 16.7 58 14.4 86 86 NW 6 9 30.00 1016 10 16 0.00 0.00
5:52 am 05:52 Clear 63 17.2 57 13.9 81 81 WNW 6 9 30.00 1016 10 16 0.00 0.00
6:52 am 06:52 Clear 61 16.1 57 13.9 87 87 NW 7 11 30.01 1016 10 16 0.00 0.00
7:52 am 07:52 Sunny 60 15.6 58 14.4 93 93 SSW 3 6 30.03 1017 9 14 0.00 0.00
8:52 am 08:52 Sunny 65 18.3 60 15.6 84 84 Calm 30.04 1017 9 14 0.00 0.00
9:52 am 09:52 Sunny 70 21.1 61 16.1 73 73 Calm 30.05 1018 10 16 0.00 0.00
10:52 am 10:52 Sunny 74 23.3 60 15.6 62 62 VRB 3 6 30.05 1018 10 16 0.00 0.00
11:52 am 11:52 Mostly Sunny 76 24.4 58 14.4 54 54 VRB 3 6 30.05 1018 10 16 0.00 0.00
12:52 pm 12:52 Mostly Sunny 78 25.6 58 14.4 50 50 WNW 8 13 30.04 1017 10 16 0.00 0.00
1:52 pm 13:52 Partly Cloudy 78 25.6 61 16.1 56 56 VRB 6 9 30.03 1017 10 16 0.00 0.00
2:52 pm 14:52 Mostly Sunny 78 25.6 59 15 52 52 W 9 15 30.03 1017 10 16 0.00 0.00
3:52 pm 15:52 Mostly Sunny 79 26.1 59 15 50 50 W 7 11 30.01 1016 10 16 0.00 0.00
4:52 pm 16:52 Mostly Sunny 80 26.7 59 15 49 49 W 12 19 30.01 1016 10 16 0.00 0.00
5:52 pm 17:52 Mostly Sunny 78 25.6 58 14.4 50 50 WNW 9 15 30.00 1016 10 16 0.00 0.00
6:52 pm 18:52 Mostly Sunny 78 25.6 58 14.4 50 50 WNW 12 19 30.00 1016 10 16 0.00 0.00
7:52 pm 19:52 Mostly Sunny 73 22.8 60 15.6 64 64 W 6 9 30.00 1016 10 16 0.00 0.00
8:52 pm 20:52 Clear 69 20.6 60 15.6 73 73 W 6 9 30.01 1016 10 16 0.00 0.00
9:52 pm 21:52 Clear 67 19.4 59 15 76 76 W 6 9 30.02 1017 10 16 0.00 0.00
10:52 pm 22:52 Clear 69 20.6 59 15 70 70 W 6 9 30.02 1017 10 16 0.00 0.00
11:52 pm 23:52 Clear 65 18.3 59 15 81 81 W 5 7 30.03 1017 10 16 0.00 0.00

Powered by AerisWeather